Hourly Weather Ludwinow

Today, 20 June, Sunday

Time Temperature Precipitation Wind Pressure Humidity
00:00 +20°C° 0 mm 3 mps 749 mmHg 88%
01:00 +19°C° 0 mm 2 mps 749 mmHg 90%
02:00 +18°C° 0 mm 2 mps 749 mmHg 93%
03:00 +18°C° 0 mm 2 mps 749 mmHg 93%
04:00 +18°C° 0 mm 2 mps 749 mmHg 93%
05:00 +18°C° 0 mm 2 mps 749 mmHg 93%
06:00 +20°C° 0 mm 3 mps 749 mmHg 87%
07:00 +21°C° 0 mm 3 mps 749 mmHg 81%
08:00 +23°C° 0 mm 4 mps 749 mmHg 75%
09:00 +25°C° 0 mm 4 mps 749 mmHg 70%
10:00 +26°C° 0 mm 4 mps 749 mmHg 66%
11:00 +28°C° 0 mm 4 mps 749 mmHg 62%
12:00 +28°C° 0.1 mm 4 mps 748 mmHg 62%
13:00 +28°C° 0.1 mm 4 mps 748 mmHg 62%
14:00 +28°C° 0.1 mm 4 mps 748 mmHg 63%
15:00 +28°C° 0.3 mm 4 mps 748 mmHg 64%
16:00 +28°C° 0.3 mm 4 mps 747 mmHg 66%
17:00 +28°C° 0.3 mm 4 mps 747 mmHg 68%
18:00 +27°C° 0.1 mm 4 mps 747 mmHg 73%
19:00 +26°C° 0.1 mm 3 mps 747 mmHg 78%
20:00 +25°C° 0.1 mm 3 mps 746 mmHg 83%
21:00 +24°C° 0.2 mm 3 mps 746 mmHg 84%
22:00 +23°C° 0.2 mm 2 mps 746 mmHg 86%
23:00 +21°C° 0.2 mm 2 mps 746 mmHg 88%

Tomorrow, 21 June, Monday

Time Temperature Precipitation Wind Pressure Humidity
00:00 +20°C° 0 mm 2 mps 746 mmHg 89%
01:00 +20°C° 0 mm 3 mps 746 mmHg 90%
02:00 +19°C° 0 mm 3 mps 746 mmHg 90%
03:00 +19°C° 0 mm 3 mps 746 mmHg 92%
04:00 +19°C° 0 mm 3 mps 746 mmHg 93%
05:00 +18°C° 0 mm 3 mps 746 mmHg 94%
06:00 +20°C° 0 mm 4 mps 746 mmHg 89%
07:00 +21°C° 0 mm 4 mps 746 mmHg 84%
08:00 +22°C° 0 mm 5 mps 746 mmHg 78%
09:00 +25°C° 0 mm 5 mps 746 mmHg 72%
10:00 +26°C° 0 mm 5 mps 746 mmHg 66%
11:00 +27°C° 0 mm 6 mps 745 mmHg 61%
12:00 +27°C° 0.1 mm 5 mps 745 mmHg 61%
13:00 +27°C° 0.1 mm 4 mps 745 mmHg 62%
14:00 +27°C° 0.1 mm 4 mps 745 mmHg 63%
15:00 +28°C° 0.1 mm 4 mps 745 mmHg 63%
16:00 +28°C° 0.1 mm 4 mps 744 mmHg 62%
17:00 +28°C° 0.1 mm 4 mps 744 mmHg 62%
18:00 +27°C° 0 mm 4 mps 744 mmHg 68%
19:00 +26°C° 0 mm 3 mps 744 mmHg 73%
20:00 +25°C° 0 mm 3 mps 744 mmHg 79%
21:00 +24°C° 0 mm 3 mps 744 mmHg 82%
22:00 +22°C° 0 mm 3 mps 744 mmHg 86%
23:00 +21°C° 0 mm 3 mps 744 mmHg 89%

Day after tomorrow, 22 June, Tuesday

Time Temperature Precipitation Wind Pressure Humidity
00:00 +20°C° 0 mm 3 mps 744 mmHg 91%
01:00 +20°C° 0 mm 3 mps 744 mmHg 92%
02:00 +19°C° 0 mm 3 mps 744 mmHg 94%
03:00 +19°C° 0 mm 3 mps 744 mmHg 94%
04:00 +19°C° 0 mm 3 mps 744 mmHg 95%
05:00 +19°C° 0 mm 3 mps 744 mmHg 95%
06:00 +21°C° 0 mm 3 mps 744 mmHg 88%
07:00 +22°C° 0 mm 3 mps 744 mmHg 82%
08:00 +25°C° 0 mm 4 mps 745 mmHg 75%
09:00 +26°C° 0 mm 4 mps 745 mmHg 70%
10:00 +28°C° 0 mm 4 mps 745 mmHg 65%
11:00 +29°C° 0 mm 4 mps 745 mmHg 60%
12:00 +29°C° 0.2 mm 4 mps 745 mmHg 59%
13:00 +30°C° 0.2 mm 4 mps 745 mmHg 58%
14:00 +32°C° 0.2 mm 4 mps 745 mmHg 56%
15:00 +30°C° 1.3 mm 3 mps 745 mmHg 61%
16:00 +29°C° 1.3 mm 3 mps 745 mmHg 67%
17:00 +28°C° 1.3 mm 3 mps 745 mmHg 72%
18:00 +26°C° 1.4 mm 2 mps 745 mmHg 77%
19:00 +25°C° 1.4 mm 2 mps 745 mmHg 82%
20:00 +24°C° 1.4 mm 2 mps 745 mmHg 87%
21:00 +23°C° 0.9 mm 2 mps 746 mmHg 88%
22:00 +23°C° 0.9 mm 2 mps 746 mmHg 90%
23:00 +23°C° 0.9 mm 2 mps 746 mmHg 91%

23 June, Wednesday

Time Temperature Precipitation Wind Pressure Humidity
00:00 +22°C° 0.2 mm 1 mps 746 mmHg 91%
01:00 +22°C° 0.2 mm 1 mps 746 mmHg 91%
02:00 +22°C° 0.2 mm 1 mps 746 mmHg 91%
03:00 +22°C° 0 mm 1 mps 746 mmHg 91%
04:00 +22°C° 0 mm 1 mps 746 mmHg 91%
05:00 +22°C° 0 mm 1 mps 746 mmHg 91%
06:00 +23°C° 0 mm 2 mps 747 mmHg 88%
07:00 +25°C° 0 mm 2 mps 747 mmHg 84%
08:00 +26°C° 0 mm 3 mps 747 mmHg 81%
09:00 +27°C° 0.1 mm 3 mps 747 mmHg 74%
10:00 +29°C° 0.1 mm 3 mps 747 mmHg 68%
11:00 +30°C° 0.1 mm 3 mps 747 mmHg 62%
12:00 +31°C° 0 mm 3 mps 747 mmHg 59%
13:00 +33°C° 0 mm 3 mps 747 mmHg 55%
14:00 +33°C° 0 mm 3 mps 747 mmHg 52%
15:00 +33°C° 0 mm 3 mps 747 mmHg 53%
16:00 +33°C° 0 mm 3 mps 747 mmHg 54%
17:00 +33°C° 0 mm 3 mps 747 mmHg 55%
18:00 +31°C° 0.1 mm 2 mps 747 mmHg 62%
19:00 +29°C° 0.1 mm 2 mps 747 mmHg 68%
20:00 +28°C° 0.1 mm 2 mps 748 mmHg 75%
21:00 +26°C° 1 mm 2 mps 748 mmHg 79%
22:00 +23°C° 1 mm 2 mps 748 mmHg 84%
23:00 +20°C° 1 mm 2 mps 748 mmHg 89%

24 June, Thursday

Time Temperature Precipitation Wind Pressure Humidity
00:00 +20°C° 0.3 mm 2 mps 748 mmHg 89%
01:00 +20°C° 0.3 mm 2 mps 748 mmHg 89%
02:00 +20°C° 0.3 mm 2 mps 749 mmHg 89%
03:00 +20°C° 0.1 mm 2 mps 749 mmHg 91%
04:00 +19°C° 0.1 mm 2 mps 749 mmHg 93%
05:00 +19°C° 0.1 mm 2 mps 749 mmHg 95%
06:00 +20°C° 0 mm 2 mps 749 mmHg 91%
07:00 +21°C° 0 mm 2 mps 749 mmHg 87%
08:00 +22°C° 0 mm 3 mps 749 mmHg 84%
09:00 +25°C° 0 mm 3 mps 750 mmHg 79%
10:00 +26°C° 0 mm 2 mps 750 mmHg 74%
11:00 +27°C° 0 mm 2 mps 750 mmHg 69%
12:00 +28°C° 0 mm 2 mps 750 mmHg 67%
13:00 +29°C° 0 mm 2 mps 750 mmHg 65%
14:00 +29°C° 0 mm 2 mps 750 mmHg 63%
15:00 +29°C° 0 mm 2 mps 749 mmHg 63%
16:00 +29°C° 0 mm 1 mps 749 mmHg 62%
17:00 +30°C° 0 mm 1 mps 749 mmHg 62%
18:00 +28°C° 0 mm 1 mps 749 mmHg 68%
19:00 +27°C° 0 mm 1 mps 748 mmHg 73%
20:00 +26°C° 0 mm 2 mps 748 mmHg 79%
21:00 +25°C° 0 mm 2 mps 748 mmHg 82%
22:00 +24°C° 0 mm 2 mps 748 mmHg 85%
23:00 +23°C° 0 mm 2 mps 748 mmHg 88%

25 June, Friday

Time Temperature Precipitation Wind Pressure Humidity
00:00 +23°C° 0 mm 2 mps 747 mmHg 90%
01:00 +21°C° 0 mm 2 mps 747 mmHg 92%
02:00 +21°C° 0 mm 2 mps 747 mmHg 94%
03:00 +21°C° 1.4 mm 3 mps 747 mmHg 95%
04:00 +21°C° 1.4 mm 3 mps 747 mmHg 96%
05:00 +21°C° 1.4 mm 3 mps 747 mmHg 97%
06:00 +21°C° 1.2 mm 3 mps 747 mmHg 95%
07:00 +21°C° 1.2 mm 4 mps 746 mmHg 93%
08:00 +22°C° 1.2 mm 4 mps 746 mmHg 92%
09:00 +25°C° 0.4 mm 4 mps 746 mmHg 84%
10:00 +27°C° 0.4 mm 4 mps 746 mmHg 77%
11:00 +29°C° 0.4 mm 4 mps 746 mmHg 70%
12:00 +29°C° 0.4 mm 4 mps 746 mmHg 71%
13:00 +28°C° 0.4 mm 4 mps 746 mmHg 72%
14:00 +28°C° 0.4 mm 5 mps 747 mmHg 72%
15:00 +27°C° 0.1 mm 5 mps 747 mmHg 75%
16:00 +26°C° 0.1 mm 5 mps 747 mmHg 78%
17:00 +24°C° 0.1 mm 6 mps 747 mmHg 81%
18:00 +23°C° 0 mm 6 mps 747 mmHg 83%
19:00 +21°C° 0 mm 6 mps 747 mmHg 85%
20:00 +20°C° 0 mm 5 mps 748 mmHg 87%
21:00 +19°C° 0 mm 5 mps 748 mmHg 88%
22:00 +17°C° 0 mm 5 mps 748 mmHg 88%
23:00 +16°C° 0 mm 5 mps 749 mmHg 88%
Show more

We Need Your Consent

Meteoprog and our Service Providers may store and access personal data such as cookies, device identifiers or other similar technologies on your device and process such data to personalise content and ads, as well as provide social media features and to analyse the traffic.

  • Store and/or access information on your device

    Cookies, device identifiers or other information can be stored or accessed on your device for the purposes indicated above.

  • Personalised ads and content, ad and content measurement, audience insights, and products development

    Ads and content can be personalised based on a profile. More data can be added to better personalise ads and content. Ad and content performance can be measured. Insights about the audience who saw the ads and content can be derived. Such data can be used to develop or improve user’s experience, systems and software.

By clicking ‘I Agree’ you will allow the use of indicated cookies, device identifiers, web beacons or other similar technologies. Your settings can be changed in the browser on your device.

For certain purposes, legitimate interests may be relied on, rather than consent. You can read more about this in our Privacy and Cookie Policy.